This demonstration page uses our WeatherBlox Daily Observations layout. Learn more.

Left ArrowRight Arrow

36.19886, -115.1175

Hourly Observations for August 21, 2017

Temp ( °F °C ) Dew Point ( °F °C ) Humidity (%) Winds ( mph kmh ) Pressure ( in mb ) Visibility ( mi km ) Precip ( " mm )
12:53 am 00:53 Clear 90 32.2 46 7.8 22 22 S 3 6 29.87 1012 10 16 N/A
1:53 am 01:53 Clear 89 31.7 45 7.2 22 22 S 8 13 29.88 1012 10 16 N/A
2:53 am 02:53 Mostly Clear 89 31.7 46 7.8 23 23 SW 14 22 29.89 1012 10 16 N/A
3:53 am 03:53 Partly Cloudy 86 30 51 10.6 30 30 W 13 20 29.88 1012 10 16 N/A
4:53 am 04:53 Mostly Clear 86 30 50 10 29 29 WSW 5 7 29.89 1012 10 16 N/A
5:53 am 05:53 Mostly Clear 86 30 50 10 29 29 N N/A 29.91 1013 10 16 N/A
6:53 am 06:53 Cloudy 86 30 49 9.4 28 28 W 13 20 29.93 1014 10 16 N/A
7:53 am 07:53 Mostly Cloudy 86 30 50 10 29 29 W 12 19 29.98 1015 10 16 N/A
8:53 am 08:53 Cloudy with Light Rain 77 25 61 16.1 58 58 N N/A 30.05 1018 7 11 0.04 1.02
9:53 am 09:53 Cloudy with Light Rain 73 22.8 59 15 62 62 N 7 11 30.07 1018 8 13 0.01 0.25
10:53 am 10:53 Mostly Cloudy N/A N/A N/A N 10 17 N/A 10 16 0.03 0.76
11:53 am 11:53 Sunny 79 26.1 59 15 50 50 NNE 6 9 30.07 1018 10 16 N/A
12:53 pm 12:53 Sunny 84 28.9 57 13.9 40 40 NNE 6 9 30.05 1018 10 16 N/A
1:53 pm 13:53 Sunny 86 30 55 12.8 35 35 VRB 5 7 30.03 1017 10 16 N/A
2:53 pm 14:53 Sunny 90 32.2 52 11.1 27 27 VRB 3 6 30.00 1016 10 16 N/A
3:53 pm 15:53 Sunny 91 32.8 50 10 25 25 ENE 8 13 29.98 1015 10 16 N/A
4:53 pm 16:53 Sunny 91 32.8 50 10 25 25 E 10 17 29.97 1015 10 16 N/A
5:53 pm 17:53 Sunny 89 31.7 49 9.4 25 25 E 7 11 29.96 1015 10 16 N/A
6:53 pm 18:53 Sunny 88 31.1 49 9.4 26 26 ENE 5 7 29.96 1015 10 16 N/A
7:53 pm 19:53 Clear 88 31.1 50 10 27 27 ENE 3 6 29.97 1015 10 16 N/A
8:53 pm 20:53 Clear 87 30.6 52 11.1 30 30 N N/A 29.99 1016 10 16 N/A
9:53 pm 21:53 Clear 85 29.4 52 11.1 32 32 N N/A 30.01 1016 10 16 N/A
10:53 pm 22:53 Clear 82 27.8 55 12.8 40 40 NNW 3 6 29.91 1013 10 16 N/A
11:53 pm 23:53 Clear 80 26.7 54 12.2 41 41 N N/A 30.01 1016 10 16 N/A

Powered by AerisWeather